Вернуться в каталог

COSMOS 2266

АктивенНавигацияPO
NORAD 22888·PAYLOAD·🇷🇺 Russia

Запущен Nov 2, 1993 с Plesetsk Cosmodrome

Loading…

Ближайшие Пролёты (ближайшие 24 часа)

TLE

СвежийSource: Space-Track

Эпоха: Sep 14, 2026, 19:38 UTC

1 22888U 93070A   26257.81869459  .00000058  00000-0  44682-4 0  9990
2 22888  82.9544  14.8445 0046847 297.8925 227.4965 13.75181901646343

Отслеживайте COSMOS 2266 в реальном времени с AllMySat

Download on the App Store